Torna al catalogo

STARLINK-37922

AttivoComunicazioniVLEO
NORAD 69971·PAYLOAD·🇺🇸 United States

Lanciato Jul 9, 2026 da Cape Canaveral Space Force Station

Loading…

Prossimi Passaggi (prossime 24 ore)

TLE

AggiornatoSource: CelesTrak SupGP

Epoca: Sep 15, 2026, 03:03 UTC

1 69971C 26157AE  26258.12756944  .00073551  00000+0  21731-2 0  2588
2 69971  53.1593 358.5241 0001267  90.8323 220.4308 15.34353948    14

Traccia STARLINK-37922 in tempo reale con AllMySat

Download on the App Store